Simultaneous Nadir Overpasses (SNOs) Predictions

Prediction of SNOs between METOP-B and NOAA-19 Satellite Orbit:

Table of predicted SNOs for the next 14.0 days since TLE Epoch: 6/29/2020
Index Date (METOP-B) Time (METOP-B) Lat,Lon (METOP-B) SZA (METOP-B ) Date (NOAA-19) Time (NOAA-19) Lat,Lon (NOAA-19) SZA (NOAA-19 ) Distance(km) Time Diff (sec)
1 07/02/2020 18:27:53 80.05, -74.34 57.80 07/02/2020 18:26:38 80.07, -74.29 57.80 2.77 75
2 07/02/2020 19:18:34 -80.06, 93.14 122.18 07/02/2020 19:17:42 -80.06, 93.07 122.20 1.37 52
3 07/02/2020 20:09:14 80.06, -99.51 57.83 07/02/2020 20:08:38 80.06, -99.61 57.81 2.07 36
4 07/02/2020 20:59:56 -80.05, 67.67 122.19 07/02/2020 20:59:42 -80.05, 67.75 122.19 1.63 14
5 07/02/2020 21:50:36 80.05,-124.98 57.82 07/02/2020 21:50:38 80.04,-124.93 57.82 1.16 2
6 07/02/2020 22:41:18 -80.04, 42.19 122.21 07/02/2020 22:41:43 -80.06, 42.12 122.19 2.85 25
7 07/02/2020 23:31:58 80.04,-150.46 57.80 07/02/2020 23:32:39 80.05,-150.57 57.82 2.89 41
8 07/03/2020 00:22:40 -80.02, 16.72 122.23 07/03/2020 00:23:43 -80.04, 16.80 122.18 2.88 63
